This is the latest recevied weather packets stored in our database for station/object N6GPM. If no packets are shown the sender has not sent any weather packets the latest 10 day(s).
| Time | Temp. | Humidity | Pressure | Rain* | Wind** | Luminosity | Snow |
|---|---|---|---|---|---|---|---|
| 1777987660 | 10° C | 95% | 1016.6 hPa | 0 mm | - | 12 W/m² | - |
| 1777987358 | 10° C | 95% | 1016.4 hPa | 0 mm | - | 13 W/m² | - |
| 1777987055 | 10° C | 95% | 1016.6 hPa | 0 mm | - | 11 W/m² | - |
| 1777986752 | 10° C | 95% | 1016.4 hPa | 0 mm | - | 3 W/m² | - |
| 1777986450 | 10° C | 95% | 1016.4 hPa | 0 mm | - | 3 W/m² | - |
| 1777986149 | 10° C | 95% | 1016.3 hPa | 0 mm | - | 1 W/m² | - |
| 1777985845 | 10° C | 95% | 1016.2 hPa | 0 mm | - | 0 W/m² | - |
| 1777985542 | 10° C | 95% | 1016.4 hPa | 1.78 mm | - | 0 W/m² | - |
| 1777985239 | 10° C | 95% | 1016.3 hPa | 6.6 mm | - | 0 W/m² | - |
| 1777984936 | 10.56° C | 95% | 1016.2 hPa | 12.7 mm | - | 0 W/m² | - |
| 1777984631 | 10.56° C | 95% | 1016.1 hPa | 7.87 mm | - | 0 W/m² | - |
| 1777984329 | 10.56° C | 95% | 1016.3 hPa | 0 mm | - | 0 W/m² | - |
| 1777984025 | 10.56° C | 95% | 1016 hPa | 0 mm | - | 0 W/m² | - |
| 1777983723 | 10.56° C | 95% | 1016.2 hPa | 0 mm | - | 0 W/m² | - |
| 1777983419 | 10.56° C | 94% | 1016.3 hPa | 0 mm | - | 0 W/m² | - |
| 1777983115 | 10.56° C | 94% | 1016.2 hPa | 0 mm | - | 0 W/m² | - |
| 1777982811 | 10° C | 94% | 1016.1 hPa | 0 mm | - | 0 W/m² | - |
| 1777982508 | 10.56° C | 94% | 1016.3 hPa | 0 mm | - | 0 W/m² | - |
| 1777982201 | 10° C | 94% | 1016.3 hPa | 0 mm | - | 0 W/m² | - |
| 1777981900 | 10.56° C | 94% | 1016.2 hPa | 0 mm | - | 0 W/m² | - |
| 1777981596 | 10.56° C | 94% | 1016.2 hPa | 0 mm | - | 0 W/m² | - |
| 1777981293 | 10.56° C | 94% | 1016.3 hPa | 0 mm | - | 0 W/m² | - |
| 1777980989 | 10.56° C | 94% | 1016.3 hPa | 0 mm | - | 0 W/m² | - |
| 1777980686 | 10.56° C | 94% | 1016.4 hPa | 0 mm | - | 0 W/m² | - |
| 1777980382 | 10.56° C | 94% | 1016.4 hPa | 0 mm | - | 0 W/m² | - |
* Rain latest hour (hover to see other rain measurements)
** Current wind speed in m/s (hover to see current wind gust speed)